Portada
METAR-TAF:

METAR-TAF

Aeropuertos :

Seyresse

Dax, Francia

latitud: 43-41N, longitud: 001-04W, altitud: 32 m

Observación

El informe se hizo hace 24 minutos, a las 20:00 UTC
Viento 8 kt del oeste, variando entre suroeste y oeste-noroeste
Temperatura 16°C
Humedad 88%
Presión 1022 hPa
Visibilidad 10 km o más

METAR: LFBY 142000Z AUTO 26008KT 220V300 9999 // ////// 16/14 Q1022

Hora: 22:24 (20:24 UTC)


TAF: falta

Observaciones y pronósticos meteorológicos de más de 4000 aeropuertos (mensajes METAR y TAF).

Los puntos amarillos y rojos representan las estaciones disponibles.

Ponga el ratón en el punto deseado para ver el nombre de la estación.

Haga clic para ver las observaciones y los pronósticos meteorológicos.

Para cambiar el mapa : haga clic en los botones verdes con una cruz de color negro para hacer un zoom, en el botón verde con un guión para alejar o en las flechas verdes para mapas adyacentes.


METAR-TAF: